,,,PA_Meas_PMT16A,,PR_Meas_QMR101_102,,RH_Meas_QMH101,,SR_Meas_QMS101,,TA_Meas_QMH101,,GenWind,,GenWind,
date,time,status,PA,status,PR,status,RH,status,SR,status,TA,status,DirAvg,status,SpdAvg,
2010-01-12, 00:00:04,VALID,1001.68,VALID,0,VALID,91.2274,VALID,0,VALID,22.864,VALID,289,VALID,0.0613281,
2010-01-12, 00:01:04,VALID,1001.67,VALID,0,VALID,91.3189,VALID,0,VALID,22.864,VALID,78,VALID,0,
2010-01-12, 00:02:04,VALID,1001.66,VALID,0,VALID,91.4181,VALID,0,VALID,22.8232,VALID,241,VALID,0.393359,
2010-01-12, 00:03:04,VALID,1001.65,VALID,0,VALID,91.4563,VALID,0,VALID,22.8232,VALID,291,VALID,0.0671875,
2010-01-12, 00:04:04,VALID,1001.59,VALID,0,VALID,91.502,VALID,0,VALID,22.8232,VALID,262,VALID,0.735547,
2010-01-12, 00:05:04,VALID,1001.59,VALID,0,VALID,91.502,VALID,0,VALID,22.8427,VALID,258,VALID,0.646484,
2010-01-12, 00:06:04,VALID,1001.57,VALID,0,VALID,91.4028,VALID,0,VALID,22.8623,VALID,255,VALID,1.09609,
2010-01-12, 00:07:04,VALID,1001.56,VALID,0,VALID,91.3189,VALID,0,VALID,22.8623,VALID,199,VALID,1.05039,
2010-01-12, 00:08:04,VALID,1001.49,VALID,0,VALID,91.38,VALID,0,VALID,22.8818,VALID,206,VALID,0.525391,
2010-01-12, 00:09:04,VALID,1001.49,VALID,0,VALID,91.3189,VALID,0,VALID,22.8818,VALID,218,VALID,1.39922,
2010-01-12, 00:10:04,VALID,1001.46,VALID,0,VALID,91.2197,VALID,0,VALID,22.9013,VALID,182,VALID,0.951953,
2010-01-12, 00:11:04,VALID,1001.4,VALID,0,VALID,91.235,VALID,0,VALID,22.942,VALID,202,VALID,1.70313,
2010-01-12, 00:12:04,VALID,1001.38,VALID,0,VALID,91.1816,VALID,0,VALID,22.9403,VALID,185,VALID,0.863672,
2010-01-12, 00:13:04,VALID,1001.36,VALID,0,VALID,91.174,VALID,0,VALID,22.9598,VALID,179,VALID,1.15742,
2010-01-12, 00:14:04,VALID,1001.35,VALID,0,VALID,91.2731,VALID,0.112286,VALID,22.9385,VALID,204,VALID,1.0293,
2010-01-12, 00:15:04,VALID,1001.34,VALID,0,VALID,91.2579,VALID,0,VALID,22.9385,VALID,221,VALID,0.544531,
2010-01-12, 00:16:04,VALID,1001.28,VALID,0,VALID,91.4181,VALID,0,VALID,22.9598,VALID,151,VALID,0.742578,
2010-01-12, 00:17:04,VALID,1001.25,VALID,0,VALID,91.4868,VALID,0.112286,VALID,22.919,VALID,150,VALID,0.883594,
2010-01-12, 00:18:04,VALID,1001.22,VALID,0,VALID,91.441,VALID,0,VALID,22.919,VALID,187,VALID,1.25039,
2010-01-12, 00:19:04,VALID,1001.18,VALID,0,VALID,91.3037,VALID,0,VALID,22.9368,VALID,167,VALID,0.550781,
2010-01-12, 00:20:04,VALID,1001.12,VALID,0,VALID,91.3418,VALID,0.112286,VALID,22.9385,VALID,147,VALID,0.981641,
2010-01-12, 00:21:04,VALID,1001.09,VALID,0,VALID,91.4334,VALID,0,VALID,22.9403,VALID,152,VALID,0.866016,
2010-01-12, 00:22:04,VALID,1001.03,VALID,0,VALID,91.5326,VALID,0,VALID,22.9403,VALID,149,VALID,1.08398,
2010-01-12, 00:23:04,VALID,1001.03,VALID,0,VALID,91.6699,VALID,0,VALID,22.8995,VALID,164,VALID,1.09805,
2010-01-12, 00:24:04,VALID,1001.01,VALID,0.5,VALID,91.6623,VALID,0,VALID,22.9208,VALID,155,VALID,0.60625,
2010-01-12, 00:25:04,VALID,1001,VALID,0,VALID,91.8301,VALID,0,VALID,22.9013,VALID,148,VALID,0,
2010-01-12, 00:26:04,VALID,1000.97,VALID,0,VALID,91.8911,VALID,0,VALID,22.88,VALID,141,VALID,0,
2010-01-12, 00:27:04,VALID,1000.95,VALID,0,VALID,91.8911,VALID,0,VALID,22.8818,VALID,137,VALID,0,
2010-01-12, 00:28:04,VALID,1000.94,VALID,0,VALID,91.9751,VALID,0,VALID,22.8623,VALID,137,VALID,0,
2010-01-12, 00:29:04,VALID,1000.93,VALID,0,VALID,92.0209,VALID,0,VALID,22.8427,VALID,131,VALID,0.237891,
2010-01-12, 00:30:04,VALID,1000.89,VALID,0,VALID,92.0056,VALID,0,VALID,22.864,VALID,131,VALID,0,
2010-01-12, 00:31:04,VALID,1000.86,VALID,0,VALID,92.0437,VALID,0,VALID,22.8427,VALID,131,VALID,0,
2010-01-12, 00:32:04,VALID,1000.84,VALID,0,VALID,92.059,VALID,0,VALID,22.8427,VALID,131,VALID,0,
2010-01-12, 00:33:04,VALID,1000.83,VALID,0,VALID,91.9903,VALID,0,VALID,22.8232,VALID,120,VALID,0,
2010-01-12, 00:34:04,VALID,1000.84,VALID,0,VALID,91.998,VALID,0,VALID,22.802,VALID,104,VALID,0,
2010-01-12, 00:35:04,VALID,1000.8,VALID,0,VALID,92.0132,VALID,0.112286,VALID,22.8232,VALID,104,VALID,0,
2010-01-12, 00:36:04,VALID,1000.8,VALID,0,VALID,92.0209,VALID,0,VALID,22.8232,VALID,104,VALID,0,
2010-01-12, 00:37:04,VALID,1000.76,VALID,0,VALID,92.059,VALID,0,VALID,22.8232,VALID,104,VALID,0,
2010-01-12, 00:38:04,VALID,1000.72,VALID,0,VALID,92.1048,VALID,0,VALID,22.8427,VALID,96,VALID,0.819531,
2010-01-12, 00:39:04,VALID,1000.68,VALID,0,VALID,92.1353,VALID,0,VALID,22.841,VALID,86,VALID,0.926562,
2010-01-12, 00:40:04,VALID,1000.66,VALID,0,VALID,92.0895,VALID,0,VALID,22.8215,VALID,46,VALID,0.733203,
2010-01-12, 00:41:04,VALID,1000.66,VALID,0,VALID,92.0514,VALID,0,VALID,22.8427,VALID,36,VALID,0.811719,
2010-01-12, 00:42:04,VALID,1000.64,VALID,0,VALID,92.0056,VALID,0,VALID,22.8232,VALID,39,VALID,1.27188,
2010-01-12, 00:43:04,VALID,1000.59,VALID,0,VALID,92.0132,VALID,0,VALID,22.8232,VALID,51,VALID,1.15117,
2010-01-12, 00:44:04,VALID,1000.55,VALID,0,VALID,92.0285,VALID,0,VALID,22.8232,VALID,58,VALID,1.08867,
2010-01-12, 00:45:04,VALID,1000.53,VALID,0,VALID,92.1124,VALID,0,VALID,22.8037,VALID,55,VALID,0.708203,
2010-01-12, 00:46:04,VALID,1000.53,VALID,0,VALID,92.1811,VALID,0,VALID,22.802,VALID,30,VALID,0.635156,
2010-01-12, 00:47:04,VALID,1000.49,VALID,0,VALID,92.2192,VALID,0,VALID,22.8037,VALID,47,VALID,1.03203,
2010-01-12, 00:48:04,VALID,1000.45,VALID,0,VALID,92.2803,VALID,0,VALID,22.8232,VALID,51,VALID,1.02813,
2010-01-12, 00:49:04,VALID,1000.43,VALID,0,VALID,92.265,VALID,0,VALID,22.7825,VALID,51,VALID,0.749609,
2010-01-12, 00:50:04,VALID,1000.45,VALID,0,VALID,92.2955,VALID,0,VALID,22.8037,VALID,51,VALID,0.00585938,
2010-01-12, 00:51:04,VALID,1000.44,VALID,0,VALID,92.2879,VALID,0,VALID,22.7842,VALID,51,VALID,0,
2010-01-12, 00:52:04,VALID,1000.46,VALID,0,VALID,92.3108,VALID,0,VALID,22.7842,VALID,51,VALID,0,
2010-01-12, 00:53:04,VALID,1000.44,VALID,0,VALID,92.326,VALID,0,VALID,22.7842,VALID,51,VALID,0,
2010-01-12, 00:54:04,VALID,1000.41,VALID,0,VALID,92.3794,VALID,0,VALID,22.7647,VALID,51,VALID,0,
2010-01-12, 00:55:04,VALID,1000.4,VALID,0,VALID,92.3871,VALID,0,VALID,22.7647,VALID,51,VALID,0,
2010-01-12, 00:56:04,VALID,1000.4,VALID,0,VALID,92.3413,VALID,0,VALID,22.7647,VALID,51,VALID,0,
2010-01-12, 00:57:04,VALID,1000.36,VALID,0,VALID,92.3031,VALID,0,VALID,22.7842,VALID,67,VALID,0,
2010-01-12, 00:58:04,VALID,1000.35,VALID,0,VALID,92.1353,VALID,0,VALID,22.724,VALID,72,VALID,0,
2010-01-12, 00:59:04,VALID,1000.36,VALID,0,VALID,92.0285,VALID,0,VALID,22.763,VALID,72,VALID,0,
2010-01-12, 01:00:04,VALID,1000.35,VALID,0,VALID,91.998,VALID,0,VALID,22.802,VALID,74,VALID,0,
2010-01-12, 01:01:04,VALID,1000.34,VALID,0,VALID,91.9751,VALID,0,VALID,22.8427,VALID,74,VALID,0,
2010-01-12, 01:02:04,VALID,1000.32,VALID,0,VALID,91.8988,VALID,0,VALID,22.8427,VALID,74,VALID,0,
2010-01-12, 01:03:04,VALID,1000.33,VALID,0,VALID,91.6546,VALID,0,VALID,22.8427,VALID,86,VALID,0,
2010-01-12, 01:04:04,VALID,1000.3,VALID,0,VALID,91.7233,VALID,0,VALID,22.8623,VALID,170,VALID,0,
2010-01-12, 01:05:04,VALID,1000.3,VALID,0,VALID,91.6623,VALID,0,VALID,22.8818,VALID,192,VALID,0,
2010-01-12, 01:06:04,VALID,1000.31,VALID,0,VALID,91.7462,VALID,0,VALID,22.9013,VALID,188,VALID,0,
2010-01-12, 01:07:04,VALID,1000.27,VALID,0,VALID,91.8148,VALID,0,VALID,22.9013,VALID,188,VALID,0,
2010-01-12, 01:08:04,VALID,1000.27,VALID,0,VALID,91.8072,VALID,0,VALID,22.8818,VALID,188,VALID,0,
2010-01-12, 01:09:04,VALID,1000.3,VALID,0,VALID,91.8148,VALID,0,VALID,22.8818,VALID,188,VALID,0,
2010-01-12, 01:10:04,VALID,1000.29,VALID,0,VALID,91.9445,VALID,0,VALID,22.8818,VALID,188,VALID,0,
2010-01-12, 01:11:04,VALID,1000.27,VALID,0,VALID,91.8377,VALID,0,VALID,22.8623,VALID,110,VALID,0,
2010-01-12, 01:12:04,VALID,1000.26,VALID,0,VALID,91.3952,VALID,0,VALID,22.8427,VALID,55,VALID,0.18125,
2010-01-12, 01:13:04,VALID,1000.28,VALID,0,VALID,91.2655,VALID,0,VALID,22.8623,VALID,58,VALID,0.786719,
2010-01-12, 01:14:04,VALID,1000.24,VALID,0,VALID,91.2426,VALID,0,VALID,22.8623,VALID,66,VALID,0.855078,
2010-01-12, 01:15:04,VALID,1000.24,VALID,0,VALID,91.3647,VALID,0,VALID,22.8818,VALID,81,VALID,0.896094,
2010-01-12, 01:16:04,VALID,1000.26,VALID,0,VALID,91.5402,VALID,0,VALID,22.8818,VALID,86,VALID,0.890234,
2010-01-12, 01:17:04,VALID,1000.2,VALID,0,VALID,91.7004,VALID,0,VALID,22.8818,VALID,83,VALID,0.972656,
2010-01-12, 01:18:04,VALID,1000.2,VALID,0,VALID,91.792,VALID,0,VALID,22.8623,VALID,63,VALID,1.43164,
2010-01-12, 01:19:04,VALID,1000.2,VALID,0,VALID,91.8225,VALID,0,VALID,22.8427,VALID,67,VALID,1.525,
2010-01-12, 01:20:04,VALID,1000.19,VALID,0,VALID,91.9522,VALID,0,VALID,22.8427,VALID,64,VALID,1.43047,
2010-01-12, 01:21:04,VALID,1000.2,VALID,0,VALID,92.0895,VALID,0,VALID,22.8427,VALID,70,VALID,1.39766,
2010-01-12, 01:22:04,VALID,1000.19,VALID,0,VALID,92.1963,VALID,0,VALID,22.8232,VALID,69,VALID,0.917578,
2010-01-12, 01:23:04,VALID,1000.17,VALID,0,VALID,92.2345,VALID,0,VALID,22.8427,VALID,73,VALID,0.607813,
2010-01-12, 01:24:04,VALID,1000.19,VALID,0,VALID,92.2726,VALID,0,VALID,22.8037,VALID,73,VALID,0.237109,
2010-01-12, 01:25:04,VALID,1000.2,VALID,0,VALID,92.3413,VALID,0,VALID,22.7842,VALID,75,VALID,0,
2010-01-12, 01:26:04,VALID,1000.21,VALID,0,VALID,92.3642,VALID,0,VALID,22.7647,VALID,76,VALID,0,
2010-01-12, 01:27:04,VALID,1000.17,VALID,0,VALID,92.41,VALID,0,VALID,22.7452,VALID,76,VALID,0,
2010-01-12, 01:28:04,VALID,1000.16,VALID,0,VALID,92.4786,VALID,0,VALID,22.7452,VALID,76,VALID,0,
2010-01-12, 01:29:04,VALID,1000.16,VALID,0,VALID,92.5168,VALID,0,VALID,22.7452,VALID,76,VALID,0,
2010-01-12, 01:30:04,VALID,1000.12,VALID,0,VALID,92.5168,VALID,0,VALID,22.7062,VALID,76,VALID,0,
2010-01-12, 01:31:04,VALID,1000.11,VALID,0,VALID,92.5244,VALID,0,VALID,22.6867,VALID,76,VALID,0,
2010-01-12, 01:32:04,VALID,1000.09,VALID,0,VALID,92.532,VALID,0,VALID,22.6867,VALID,317,VALID,0,
2010-01-12, 01:33:04,VALID,1000.12,VALID,0,VALID,92.5473,VALID,0,VALID,22.6867,VALID,338,VALID,0,
2010-01-12, 01:34:04,VALID,1000.08,VALID,0,VALID,92.4328,VALID,0,VALID,22.6477,VALID,31,VALID,0.724219,
2010-01-12, 01:35:04,VALID,1000.11,VALID,0,VALID,92.3031,VALID,0,VALID,22.6477,VALID,35,VALID,0.805078,
2010-01-12, 01:36:04,VALID,1000.08,VALID,0,VALID,92.2116,VALID,0,VALID,22.6264,VALID,42,VALID,0.410937,
2010-01-12, 01:37:04,VALID,1000.07,VALID,0,VALID,92.2116,VALID,0,VALID,22.646,VALID,23,VALID,0,
2010-01-12, 01:38:04,VALID,1000.05,VALID,0,VALID,92.2497,VALID,0.112286,VALID,22.6867,VALID,15,VALID,0,
2010-01-12, 01:39:04,VALID,1000.05,VALID,0,VALID,92.265,VALID,0,VALID,22.6867,VALID,9,VALID,0,
2010-01-12, 01:40:04,VALID,1000.05,VALID,0,VALID,92.2497,VALID,0.112286,VALID,22.6655,VALID,9,VALID,0,
2010-01-12, 01:41:04,VALID,1000.05,VALID,0,VALID,92.2345,VALID,0.112286,VALID,22.7062,VALID,13,VALID,0,
2010-01-12, 01:42:04,VALID,1000.03,VALID,0,VALID,92.2421,VALID,0,VALID,22.685,VALID,23,VALID,0,
2010-01-12, 01:43:04,VALID,1000.03,VALID,0,VALID,92.2803,VALID,0,VALID,22.6884,VALID,15,VALID,0,
2010-01-12, 01:44:04,VALID,999.999,VALID,0,VALID,92.2497,VALID,0,VALID,22.6884,VALID,40,VALID,0.671484,
2010-01-12, 01:45:04,VALID,999.99,VALID,0,VALID,92.3108,VALID,0,VALID,22.6884,VALID,37,VALID,0.632422,
2010-01-12, 01:46:04,VALID,999.977,VALID,0,VALID,92.3031,VALID,0,VALID,22.6672,VALID,37,VALID,0.65625,
2010-01-12, 01:47:04,VALID,999.943,VALID,0,VALID,92.2803,VALID,0,VALID,22.7079,VALID,46,VALID,0.531641,
2010-01-12, 01:48:04,VALID,999.932,VALID,0,VALID,92.2268,VALID,0,VALID,22.7079,VALID,51,VALID,0.575781,
2010-01-12, 01:49:04,VALID,999.928,VALID,0,VALID,92.1582,VALID,0,VALID,22.6672,VALID,74,VALID,0.549219,
2010-01-12, 01:50:04,VALID,999.951,VALID,0,VALID,92.1582,VALID,0,VALID,22.7079,VALID,81,VALID,0.0285156,
2010-01-12, 01:51:04,VALID,999.919,VALID,0,VALID,92.059,VALID,0,VALID,22.6884,VALID,81,VALID,0.167187,
2010-01-12, 01:52:04,VALID,999.904,VALID,0,VALID,92.0285,VALID,0,VALID,22.6689,VALID,81,VALID,0.323438,
2010-01-12, 01:53:04,VALID,999.876,VALID,0,VALID,91.8377,VALID,0,VALID,22.6494,VALID,81,VALID,0.296875,
2010-01-12, 01:54:04,VALID,999.839,VALID,0,VALID,91.5936,VALID,0,VALID,22.6689,VALID,48,VALID,0.845703,
2010-01-12, 01:55:04,VALID,999.848,VALID,0,VALID,91.647,VALID,0,VALID,22.7079,VALID,45,VALID,0.296094,
2010-01-12, 01:56:04,VALID,999.837,VALID,0,VALID,91.6088,VALID,0,VALID,22.7079,VALID,38,VALID,0.426953,
2010-01-12, 01:57:04,VALID,999.822,VALID,0,VALID,91.6241,VALID,0,VALID,22.6867,VALID,20,VALID,0.483594,
2010-01-12, 01:58:04,VALID,999.766,VALID,0,VALID,91.7309,VALID,0,VALID,22.7062,VALID,50,VALID,0.904688,
2010-01-12, 01:59:04,VALID,999.746,VALID,0,VALID,91.7157,VALID,0,VALID,22.7062,VALID,70,VALID,0.880078,
2010-01-12, 02:00:04,VALID,999.742,VALID,0,VALID,91.7309,VALID,0,VALID,22.7274,VALID,57,VALID,0.661719,
2010-01-12, 02:01:04,VALID,999.706,VALID,0,VALID,91.7996,VALID,0,VALID,22.7469,VALID,73,VALID,0.429297,
2010-01-12, 02:02:04,VALID,999.74,VALID,0,VALID,91.8225,VALID,0,VALID,22.7274,VALID,77,VALID,0.0425781,
2010-01-12, 02:03:04,VALID,999.691,VALID,0,VALID,91.853,VALID,0,VALID,22.6867,VALID,77,VALID,0,
2010-01-12, 02:04:04,VALID,999.68,VALID,0,VALID,91.8988,VALID,0,VALID,22.6867,VALID,77,VALID,0,
2010-01-12, 02:05:04,VALID,999.674,VALID,0,VALID,91.998,VALID,0,VALID,22.6867,VALID,76,VALID,0,
2010-01-12, 02:06:04,VALID,999.624,VALID,0,VALID,91.9751,VALID,0,VALID,22.6867,VALID,40,VALID,0,
2010-01-12, 02:07:04,VALID,999.619,VALID,0,VALID,91.9064,VALID,0,VALID,22.6672,VALID,40,VALID,0,
2010-01-12, 02:08:04,VALID,999.621,VALID,0,VALID,91.7996,VALID,0,VALID,22.6884,VALID,40,VALID,0,
2010-01-12, 02:09:04,VALID,999.619,VALID,0,VALID,91.7843,VALID,0,VALID,22.6867,VALID,40,VALID,0,
2010-01-12, 02:10:04,VALID,999.591,VALID,0,VALID,91.8377,VALID,0,VALID,22.7079,VALID,40,VALID,0,
2010-01-12, 02:11:04,VALID,999.606,VALID,0,VALID,91.8301,VALID,0,VALID,22.6672,VALID,348,VALID,0,
2010-01-12, 02:12:04,VALID,999.584,VALID,0,VALID,91.8454,VALID,0,VALID,22.6672,VALID,20,VALID,0,
2010-01-12, 02:13:04,VALID,999.588,VALID,0,VALID,91.7996,VALID,0,VALID,22.6672,VALID,56,VALID,0,
2010-01-12, 02:14:04,VALID,999.58,VALID,0,VALID,91.7004,VALID,0,VALID,22.6672,VALID,56,VALID,0,
2010-01-12, 02:15:04,VALID,999.572,VALID,0,VALID,91.6775,VALID,0,VALID,22.6867,VALID,56,VALID,0,
2010-01-12, 02:16:04,VALID,999.579,VALID,0,VALID,91.708,VALID,0,VALID,22.7079,VALID,56,VALID,0,
2010-01-12, 02:17:04,VALID,999.577,VALID,0,VALID,91.7233,VALID,0,VALID,22.7079,VALID,56,VALID,0,
2010-01-12, 02:18:04,VALID,999.611,VALID,0,VALID,91.914,VALID,0,VALID,22.7062,VALID,56,VALID,0,
2010-01-12, 02:19:04,VALID,999.569,VALID,0,VALID,91.9522,VALID,0,VALID,22.7062,VALID,56,VALID,0,
2010-01-12, 02:20:04,VALID,999.588,VALID,0,VALID,91.9369,VALID,0,VALID,22.6867,VALID,56,VALID,0,
2010-01-12, 02:21:04,VALID,999.596,VALID,0,VALID,91.998,VALID,0,VALID,22.7079,VALID,56,VALID,0,
2010-01-12, 02:22:04,VALID,999.577,VALID,0,VALID,92.12,VALID,0,VALID,22.6867,VALID,56,VALID,0,
2010-01-12, 02:23:04,VALID,999.552,VALID,0,VALID,92.1506,VALID,0,VALID,22.6867,VALID,56,VALID,0,
2010-01-12, 02:24:04,VALID,999.546,VALID,0,VALID,92.1048,VALID,0,VALID,22.6884,VALID,56,VALID,0,
2010-01-12, 02:25:04,VALID,999.537,VALID,0,VALID,91.9445,VALID,0,VALID,22.6867,VALID,56,VALID,0,
2010-01-12, 02:26:04,VALID,999.521,VALID,0,VALID,91.8377,VALID,0,VALID,22.7079,VALID,56,VALID,0,
2010-01-12, 02:27:04,VALID,999.492,VALID,0,VALID,91.8835,VALID,0,VALID,22.7257,VALID,56,VALID,0,
2010-01-12, 02:28:04,VALID,999.474,VALID,0,VALID,91.7157,VALID,0,VALID,22.7452,VALID,56,VALID,0,
2010-01-12, 02:29:04,VALID,999.463,VALID,0,VALID,91.3189,VALID,0,VALID,22.7452,VALID,56,VALID,0,
2010-01-12, 02:30:04,VALID,999.461,VALID,0,VALID,91.1053,VALID,0,VALID,22.7842,VALID,60,VALID,0,
2010-01-12, 02:31:04,VALID,999.468,VALID,0,VALID,91.0061,VALID,0,VALID,22.864,VALID,61,VALID,0,
2010-01-12, 02:32:04,VALID,999.433,VALID,0,VALID,90.2203,VALID,0,VALID,22.8623,VALID,57,VALID,0,
2010-01-12, 02:33:04,VALID,999.434,VALID,0,VALID,90.5254,VALID,0,VALID,22.9811,VALID,51,VALID,0,
2010-01-12, 02:34:04,VALID,999.415,VALID,0,VALID,90.6323,VALID,0,VALID,22.9988,VALID,56,VALID,1.70078,
2010-01-12, 02:35:04,VALID,999.419,VALID,0,VALID,90.6933,VALID,0,VALID,22.9615,VALID,69,VALID,1.59727,
2010-01-12, 02:36:04,VALID,999.427,VALID,0,VALID,91.0366,VALID,0,VALID,22.9013,VALID,66,VALID,1.33438,
2010-01-12, 02:37:04,VALID,999.416,VALID,0,VALID,91.3037,VALID,0,VALID,22.8623,VALID,71,VALID,0.864062,
2010-01-12, 02:38:04,VALID,999.423,VALID,0,VALID,91.4181,VALID,0,VALID,22.8427,VALID,69,VALID,0.515625,
2010-01-12, 02:39:05,VALID,999.442,VALID,0,VALID,91.5173,VALID,0,VALID,22.825,VALID,57,VALID,0.719141,
2010-01-12, 02:40:05,VALID,999.422,VALID,0,VALID,91.6165,VALID,0,VALID,22.7842,VALID,56,VALID,0.441797,
2010-01-12, 02:41:04,VALID,999.441,VALID,0,VALID,91.6851,VALID,0,VALID,22.8055,VALID,60,VALID,0,
2010-01-12, 02:42:04,VALID,999.442,VALID,0,VALID,91.7767,VALID,0,VALID,22.7842,VALID,60,VALID,0,
2010-01-12, 02:43:05,VALID,999.444,VALID,0,VALID,91.792,VALID,0,VALID,22.786,VALID,60,VALID,0,
2010-01-12, 02:44:05,VALID,999.436,VALID,0,VALID,91.7691,VALID,0,VALID,22.7664,VALID,60,VALID,0,
2010-01-12, 02:45:05,VALID,999.433,VALID,0,VALID,91.7691,VALID,0,VALID,22.7452,VALID,60,VALID,0,
2010-01-12, 02:46:05,VALID,999.391,VALID,0,VALID,91.7385,VALID,0,VALID,22.7469,VALID,71,VALID,0,
2010-01-12, 02:47:05,VALID,999.411,VALID,0,VALID,91.7767,VALID,0,VALID,22.7257,VALID,102,VALID,0.265234,
2010-01-12, 02:48:05,VALID,999.403,VALID,0,VALID,91.8225,VALID,0,VALID,22.7257,VALID,102,VALID,0,
2010-01-12, 02:49:05,VALID,999.397,VALID,0,VALID,91.8225,VALID,0,VALID,22.7469,VALID,56,VALID,0,
2010-01-12, 02:50:05,VALID,999.423,VALID,0,VALID,91.8148,VALID,0,VALID,22.7469,VALID,65,VALID,0,
2010-01-12, 02:51:05,VALID,999.362,VALID,0,VALID,91.8683,VALID,0,VALID,22.7469,VALID,65,VALID,0,
2010-01-12, 02:52:05,VALID,999.372,VALID,0,VALID,91.9369,VALID,0,VALID,22.7664,VALID,93,VALID,0,
2010-01-12, 02:53:05,VALID,999.352,VALID,0,VALID,92.1048,VALID,0,VALID,22.7664,VALID,94,VALID,0,
2010-01-12, 02:54:05,VALID,999.353,VALID,0,VALID,92.1963,VALID,0,VALID,22.7664,VALID,83,VALID,0.128906,
2010-01-12, 02:55:05,VALID,999.337,VALID,0,VALID,92.3489,VALID,0,VALID,22.8055,VALID,126,VALID,1.14609,
2010-01-12, 02:56:05,VALID,999.334,VALID,0,VALID,92.3871,VALID,0,VALID,22.7842,VALID,106,VALID,0.649219,
2010-01-12, 02:57:05,VALID,999.345,VALID,0,VALID,92.4023,VALID,0,VALID,22.825,VALID,288,VALID,0.21875,
2010-01-12, 02:58:05,VALID,999.307,VALID,0,VALID,92.4023,VALID,0,VALID,22.825,VALID,287,VALID,0,
2010-01-12, 02:59:05,VALID,999.264,VALID,0,VALID,92.3947,VALID,0,VALID,22.8037,VALID,111,VALID,0,
2010-01-12, 03:00:05,VALID,999.298,VALID,0,VALID,92.3794,VALID,0,VALID,22.8037,VALID,87,VALID,0,
2010-01-12, 03:01:05,VALID,999.305,VALID,0,VALID,92.3108,VALID,0,VALID,22.8037,VALID,75,VALID,0,
2010-01-12, 03:02:05,VALID,999.288,VALID,0,VALID,92.1887,VALID,0,VALID,22.7842,VALID,72,VALID,0,
2010-01-12, 03:03:05,VALID,999.265,VALID,0,VALID,92.1658,VALID,0,VALID,22.825,VALID,72,VALID,0,
2010-01-12, 03:04:05,VALID,999.301,VALID,0,VALID,92.1124,VALID,0,VALID,22.8232,VALID,53,VALID,0,
2010-01-12, 03:05:05,VALID,999.31,VALID,0,VALID,91.9751,VALID,0,VALID,22.8445,VALID,64,VALID,0.479688,
2010-01-12, 03:06:05,VALID,999.305,VALID,0,VALID,91.9369,VALID,0,VALID,22.864,VALID,82,VALID,0.810938,
2010-01-12, 03:07:05,VALID,999.3,VALID,0,VALID,91.853,VALID,0,VALID,22.8835,VALID,99,VALID,0.420312,
2010-01-12, 03:08:05,VALID,999.289,VALID,0,VALID,91.4181,VALID,0,VALID,22.864,VALID,105,VALID,1.13086,
2010-01-12, 03:09:05,VALID,999.289,VALID,0,VALID,91.1282,VALID,0,VALID,22.8835,VALID,97,VALID,0.739453,
2010-01-12, 03:10:05,VALID,999.323,VALID,0,VALID,91.1206,VALID,0,VALID,22.9013,VALID,93,VALID,0,
2010-01-12, 03:11:05,VALID,999.293,VALID,0,VALID,91.1892,VALID,0,VALID,22.9225,VALID,93,VALID,0,
2010-01-12, 03:12:05,VALID,999.282,VALID,0,VALID,91.2579,VALID,0,VALID,22.9013,VALID,92,VALID,0,
2010-01-12, 03:13:05,VALID,999.249,VALID,0,VALID,91.0366,VALID,0,VALID,22.9013,VALID,88,VALID,1.04922,
2010-01-12, 03:14:05,VALID,999.264,VALID,0,VALID,90.678,VALID,0,VALID,22.903,VALID,94,VALID,0.922266,
2010-01-12, 03:15:05,VALID,999.255,VALID,0,VALID,90.5483,VALID,0,VALID,22.9225,VALID,92,VALID,0.719141,
2010-01-12, 03:16:05,VALID,999.277,VALID,0,VALID,90.6323,VALID,0,VALID,22.942,VALID,92,VALID,0.698047,
2010-01-12, 03:17:05,VALID,999.289,VALID,0,VALID,90.556,VALID,0,VALID,22.9208,VALID,78,VALID,0.360938,
2010-01-12, 03:18:05,VALID,999.301,VALID,0,VALID,90.6475,VALID,0,VALID,22.942,VALID,69,VALID,0.179688,
2010-01-12, 03:19:05,VALID,999.305,VALID,0,VALID,90.6475,VALID,0,VALID,22.8818,VALID,31,VALID,0.159766,
2010-01-12, 03:20:05,VALID,999.327,VALID,0,VALID,90.7543,VALID,0,VALID,22.8818,VALID,34,VALID,0.659766,
2010-01-12, 03:21:05,VALID,999.339,VALID,0,VALID,90.6704,VALID,0,VALID,22.9225,VALID,58,VALID,1.08047,
2010-01-12, 03:22:05,VALID,999.324,VALID,0,VALID,90.7085,VALID,0,VALID,22.9225,VALID,73,VALID,0.819922,
2010-01-12, 03:23:05,VALID,999.326,VALID,0,VALID,90.7467,VALID,0,VALID,22.9225,VALID,79,VALID,0.590625,
2010-01-12, 03:24:05,VALID,999.343,VALID,0,VALID,90.8611,VALID,0,VALID,22.9013,VALID,87,VALID,0.175781,
2010-01-12, 03:25:05,VALID,999.317,VALID,0,VALID,90.9909,VALID,0,VALID,22.8818,VALID,53,VALID,0.132031,
2010-01-12, 03:26:05,VALID,999.308,VALID,0,VALID,91.09,VALID,0,VALID,22.8623,VALID,37,VALID,0.0328125,
2010-01-12, 03:27:05,VALID,999.303,VALID,0,VALID,91.2197,VALID,0,VALID,22.8427,VALID,37,VALID,0.00585938,
2010-01-12, 03:28:05,VALID,999.306,VALID,0,VALID,91.3113,VALID,0,VALID,22.8232,VALID,37,VALID,0,
2010-01-12, 03:29:05,VALID,999.354,VALID,0,VALID,91.3494,VALID,0,VALID,22.8232,VALID,8,VALID,0.565234,
2010-01-12, 03:30:05,VALID,999.289,VALID,0,VALID,91.4944,VALID,0,VALID,22.8232,VALID,4,VALID,0.115234,
2010-01-12, 03:31:05,VALID,999.304,VALID,0,VALID,91.586,VALID,0,VALID,22.8232,VALID,71,VALID,0,
2010-01-12, 03:32:05,VALID,999.334,VALID,0,VALID,91.5631,VALID,0,VALID,22.8037,VALID,72,VALID,0,
2010-01-12, 03:33:05,VALID,999.324,VALID,0,VALID,91.5554,VALID,0,VALID,22.8037,VALID,72,VALID,0,
2010-01-12, 03:34:05,VALID,999.318,VALID,0,VALID,91.4944,VALID,0,VALID,22.7842,VALID,72,VALID,0,
2010-01-12, 03:35:05,VALID,999.265,VALID,0,VALID,91.5936,VALID,0,VALID,22.8055,VALID,72,VALID,0,
2010-01-12, 03:36:05,VALID,999.29,VALID,0,VALID,91.4944,VALID,0,VALID,22.8055,VALID,72,VALID,0,
2010-01-12, 03:37:05,VALID,999.275,VALID,0,VALID,91.6012,VALID,0,VALID,22.8037,VALID,215,VALID,0,
2010-01-12, 03:38:05,VALID,999.227,VALID,0,VALID,91.174,VALID,0,VALID,22.8037,VALID,133,VALID,1.32539,
2010-01-12, 03:39:05,VALID,999.218,VALID,0,VALID,90.9909,VALID,0,VALID,22.8232,VALID,31,VALID,1.22344,
2010-01-12, 03:40:05,VALID,999.26,VALID,0,VALID,90.8535,VALID,0,VALID,22.8835,VALID,39,VALID,0.716797,
2010-01-12, 03:41:05,VALID,999.245,VALID,0,VALID,90.7238,VALID,0,VALID,22.8427,VALID,61,VALID,0.817578,
2010-01-12, 03:42:05,VALID,999.199,VALID,0,VALID,90.6017,VALID,0,VALID,22.9225,VALID,89,VALID,1.00742,
2010-01-12, 03:43:05,VALID,999.24,VALID,0,VALID,90.5865,VALID,0,VALID,22.9403,VALID,111,VALID,0.753906,
2010-01-12, 03:44:05,VALID,999.253,VALID,0,VALID,90.4797,VALID,0,VALID,22.9811,VALID,139,VALID,0.401172,
2010-01-12, 03:45:05,VALID,999.239,VALID,0,VALID,90.3957,VALID,0,VALID,22.9811,VALID,195,VALID,0.203516,
2010-01-12, 03:46:05,VALID,999.223,VALID,0,VALID,90.35,VALID,0,VALID,22.9811,VALID,187,VALID,0,
2010-01-12, 03:47:05,VALID,999.232,VALID,0,VALID,90.4797,VALID,0,VALID,22.9598,VALID,157,VALID,0.0222656,
2010-01-12, 03:48:05,VALID,999.231,VALID,0,VALID,90.5712,VALID,0,VALID,22.9811,VALID,145,VALID,0,
2010-01-12, 03:49:05,VALID,999.231,VALID,0,VALID,90.7314,VALID,0,VALID,22.9615,VALID,145,VALID,0,
2010-01-12, 03:50:05,VALID,999.216,VALID,0,VALID,90.8993,VALID,0,VALID,22.942,VALID,145,VALID,0,
2010-01-12, 03:51:05,VALID,999.253,VALID,0,VALID,90.9909,VALID,0,VALID,22.9208,VALID,145,VALID,0,
2010-01-12, 03:52:05,VALID,999.261,VALID,0,VALID,91.1129,VALID,0,VALID,22.9013,VALID,145,VALID,0,
2010-01-12, 03:53:05,VALID,999.262,VALID,0,VALID,91.38,VALID,0,VALID,22.9225,VALID,145,VALID,0,